FW0441 Weather Reports


time (UTC)temp
C
wind
direction
speed
KPH
gust
KPH
rain 1hr
cm
rain 24hr
cm
rain mn
cm
humidity
%
barometer
mb
20260504141144 14 331 6.4 9.7 0.00 0.00 0.00 47 997.3
20260504140646 14 336 6.4 14.5 0.00 0.00 0.00 48 997.2
20260504140146 14 324 4.8 14.5 0.00 0.00 0.00 47 997.1
20260504130646 14 335 4.8 12.9 0.00 0.00 0.00 48 996.4
20260504130422 15 319 3.2 11.3 0.00 0.00 0.00 53 996.3
20260504130146 14 337 4.8 9.7 0.00 0.00 0.00 53 996.4
20260504120143 15 293 4.8 16.1 0.00 0.00 0.00 46 995.2
20260504110636 15 284 4.8 16.1 0.00 0.00 0.00 41 994.3
20260504110137 15 200 4.8 22.5 0.00 0.00 0.00 41 994.5
20260504100358 15 185 4.8 9.7 0.00 0.00 0.00 40 994.6
20260504090125 14 205 4.8 14.5 0.00 0.00 0.00 40 995.7
20260504081620 14 198 4.8 12.9 0.00 0.00 0.00 42 996.5
20260504081120 14 199 4.8 9.7 0.00 0.00 0.00 43 996.8
20260504080621 14 204 4.8 9.7 0.00 0.00 0.00 42 996.8
20260504080354 14 219 3.2 8.0 0.00 0.00 0.00 42 996.9
20260504070114 14 223 3.2 9.7 0.00 0.00 0.00 42 998.1
20260504060110 13 206 4.8 9.7 0.00 0.00 0.00 44 999.2
20260504050609 13 206 3.2 8.0 0.00 0.00 0.00 44 1000.3
20260504050107 13 202 3.2 9.7 0.00 0.00 0.00 44 1000.6
20260504045607 13 203 3.2 9.7 0.00 0.00 0.00 44 1000.6
20260504045107 13 252 3.2 6.4 0.00 0.00 0.00 45 1000.9
20260504044836 13 257 3.2 4.8 0.00 0.00 0.00 45 1000.7
20260504044102 13 269 3.2 4.8 0.00 0.00 0.00 47 1000.9
20260504043600 12 270 3.2 4.8 0.00 0.00 0.00 49 1001.1
20260504043101 11 277 1.6 4.8 0.00 0.00 0.00 52 1001.2
20260504042831 11 282 1.6 4.8 0.00 0.00 0.00 59 1001.3
20260504042058 10 282 1.6 4.8 0.00 0.00 0.00 61 1001.5
20260504041601 10 283 0.0 0.0 0.00 0.00 0.00 70 1001.7
20260504041557 10 282 0.0 3.2 0.00 0.00 0.00 67 1001.4
20260504040829 10 283 0.0 0.0 0.00 0.00 0.00 69 1001.6
20260504040056 10 283 0.0 0.0 0.00 0.00 0.00 69 1001.8
20260504035828 10 283 0.0 0.0 0.00 0.00 0.00 67 1002.0
20260504035329 10 283 0.0 0.0 0.00 0.00 0.00 66 1002.1
20260504034555 10 283 0.0 0.0 0.00 0.00 0.00 64 1002.0
20260504034056 10 283 0.0 0.0 0.00 0.00 0.00 61 1002.2
20260504033824 11 283 0.0 0.0 0.00 0.00 0.00 59 1002.2
20260504033054 11 283 0.0 0.0 0.00 0.00 0.00 59 1002.3
20260504032555 11 283 0.0 0.0 0.00 0.00 0.00 56 1002.4
20260504032325 11 283 0.0 0.0 0.00 0.00 0.00 54 1002.5
20260504031555 11 283 0.0 0.0 0.00 0.00 0.00 54 1002.7
20260504031054 11 283 0.0 0.0 0.00 0.00 0.00 55 1002.7
20260504030555 12 283 0.0 0.0 0.00 0.00 0.00 58 1002.8
20260504030054 12 283 0.0 0.0 0.00 0.00 0.00 63 1002.8
20260504025554 12 283 0.0 0.0 0.00 0.00 0.00 61 1002.9
20260504025052 12 283 0.0 0.0 0.00 0.00 0.00 61 1002.9
20260504024552 13 283 0.0 0.0 0.00 0.00 0.00 63 1003.0
20260504024054 13 283 0.0 0.0 0.00 0.00 0.00 60 1003.0
20260504023552 13 283 0.0 0.0 0.00 0.00 0.00 55 1003.1
20260504023051 13 283 0.0 0.0 0.00 0.00 0.00 59 1003.1
20260504022554 13 283 0.0 0.0 0.00 0.00 0.00 61 1003.3
20260504022053 13 283 0.0 0.0 0.00 0.00 0.00 61 1003.1
20260504021552 14 283 0.0 0.0 0.00 0.00 0.00 60 1003.1
20260504021053 15 283 0.0 0.0 0.00 0.00 0.00 58 1003.2
20260504020822 15 283 0.0 0.0 0.00 0.00 0.00 54 1003.1
20260504020052 15 283 0.0 0.0 0.00 0.00 0.00 51 1003.0
20260504015551 16 283 0.0 0.0 0.00 0.00 0.00 53 1003.0
20260504015050 16 283 0.0 0.0 0.00 0.00 0.00 53 1003.1
20260504014548 16 283 0.0 0.0 0.00 0.00 0.00 48 1003.1
20260504014048 17 283 0.0 0.0 0.00 0.00 0.00 44 1003.0
20260504013549 17 283 0.0 0.0 0.00 0.00 0.00 36 1003.1
20260504013316 17 283 0.0 0.0 0.00 0.00 0.00 36 1003.1
20260504012547 17 283 0.0 0.0 0.00 0.00 0.00 31 1003.1
20260504012046 18 283 0.0 0.0 0.00 0.00 0.00 29 1003.1
20260504011545 18 283 0.0 0.0 0.00 0.00 0.00 29 1003.2
20260504011044 18 283 0.0 0.0 0.00 0.00 0.00 30 1003.3
20260504010543 18 283 0.0 0.0 0.00 0.00 0.00 29 1003.2
20260504010045 18 283 0.0 0.0 0.00 0.00 0.00 28 1003.3
20260504005815 18 283 0.0 1.6 0.00 0.00 0.00 29 1003.2
20260504005045 19 283 1.6 9.7 0.00 0.00 0.00 29 1003.3
20260504004543 19 283 1.6 9.7 0.00 0.00 0.00 29 1003.4
20260504004313 19 206 1.6 6.4 0.00 0.00 0.00 29 1003.3
20260504003542 19 241 1.6 3.2 0.00 0.00 0.00 28 1003.4
20260504003041 19 241 1.6 3.2 0.00 0.00 0.00 29 1003.5
20260504002813 19 304 1.6 6.4 0.00 0.00 0.00 28 1003.4
20260504002042 20 304 1.6 6.4 0.00 0.00 0.00 28 1003.6
20260504001543 20 298 1.6 4.8 0.00 0.00 0.00 27 1003.4
20260504001313 20 298 1.6 3.2 0.00 0.00 0.00 29 1003.4
20260504000543 20 298 1.6 4.8 0.00 0.00 0.00 31 1003.6
20260504000043 20 298 1.6 8.0 0.00 0.00 0.00 29 1003.5
20260503235542 20 298 1.6 8.0 0.00 0.00 0.00 28 1003.6
20260503235315 20 221 1.6 6.4 0.00 0.00 0.00 28 1003.5
20260503234543 20 291 1.6 4.8 0.00 0.00 0.00 27 1003.5
20260503234043 20 267 1.6 4.8 0.00 0.00 0.00 27 1003.5
20260503233543 20 217 1.6 6.4 0.00 0.00 0.00 27 1003.6
20260503233314 21 213 3.2 11.3 0.00 0.00 0.00 27 1003.5
20260503232542 21 190 3.2 11.3 0.00 0.00 0.00 25 1003.5
20260503232043 21 243 3.2 11.3 0.00 0.00 0.00 24 1003.7
20260503231548 21 286 3.2 9.7 0.00 0.00 0.00 23 1003.7
20260503231541 21 267 3.2 11.3 0.00 0.00 0.00 24 1003.7
20260503231043 21 234 3.2 9.7 0.00 0.00 0.00 24 1003.7
20260503230039 21 248 3.2 9.7 0.00 0.00 0.00 28 1003.7
20260503225545 21 307 3.2 6.4 0.00 0.00 0.00 24 1003.8
20260503225540 21 347 3.2 9.7 0.00 0.00 0.00 27 1003.8
20260503224810 21 306 3.2 6.4 0.00 0.00 0.00 26 1003.9
20260503224039 21 305 3.2 6.4 0.00 0.00 0.00 26 1003.9
20260503223540 21 294 3.2 6.4 0.00 0.00 0.00 24 1003.9
20260503223313 21 246 3.2 11.3 0.00 0.00 0.00 27 1003.9
20260503222813 21 207 3.2 11.3 0.00 0.00 0.00 24 1004.0
20260503222045 21 288 3.2 11.3 0.00 0.00 0.00 24 1004.2
20260503222041 21 269 3.2 6.4 0.00 0.00 0.00 26 1004.1
20260503221540 21 273 3.2 11.3 0.00 0.00 0.00 26 1004.1
20260503220809 21 212 3.2 8.0 0.00 0.00 0.00 27 1004.0
20260503220039 21 192 3.2 11.3 0.00 0.00 0.00 28 1004.1
20260503215539 21 190 3.2 11.3 0.00 0.00 0.00 26 1004.1
20260503215310 21 22 3.2 8.0 0.00 0.00 0.00 25 1004.1
20260503214537 21 56 3.2 6.4 0.00 0.00 0.00 27 1004.3
20260503214043 20 59 4.8 12.9 0.00 0.00 0.00 27 1004.3
20260503214038 20 58 3.2 9.7 0.00 0.00 0.00 28 1004.4
20260503213036 20 0 4.8 12.9 0.00 0.00 0.00 27 1004.5
20260503212535 20 0 6.4 12.9 0.00 0.00 0.00 27 1004.6
20260503212308 20 16 6.4 14.5 0.00 0.00 0.00 26 1004.7
20260503211806 20 20 6.4 17.7 0.00 0.00 0.00 27 1004.9
20260503211035 20 340 4.8 17.7 0.00 0.00 0.00 25 1004.7
20260503210537 21 5 4.8 14.5 0.00 0.00 0.00 27 1004.9
20260503210312 20 5 4.8 17.7 0.00 0.00 0.00 27 1004.9
20260503210306 20 5 6.4 17.7 0.00 0.00 0.00 26 1004.9
20260503205036 21 5 4.8 12.9 0.00 0.00 0.00 26 1005.0
20260503204535 21 338 4.8 9.7 0.00 0.00 0.00 28 1005.0
20260503204035 21 331 4.8 9.7 0.00 0.00 0.00 30 1005.2
20260503203534 21 329 4.8 9.7 0.00 0.00 0.00 27 1005.2
20260503203034 21 244 4.8 12.9 0.00 0.00 0.00 26 1005.1
20260503202533 21 5 4.8 12.9 0.00 0.00 0.00 25 1005.3
20260503202033 21 350 3.2 8.0 0.00 0.00 0.00 27 1005.1
20260503201533 20 31 3.2 8.0 0.00 0.00 0.00 27 1005.4
20260503201034 21 12 4.8 8.0 0.00 0.00 0.00 25 1005.5
20260503200533 21 349 3.2 8.0 0.00 0.00 0.00 27 1005.5
20260503200034 21 342 4.8 9.7 0.00 0.00 0.00 28 1005.5
20260503195539 21 281 3.2 12.9 0.00 0.00 0.00 29 1005.6
20260503195533 21 317 4.8 9.7 0.00 0.00 0.00 28 1005.5
20260503194534 21 271 3.2 12.9 0.00 0.00 0.00 26 1005.6
20260503194310 20 0 4.8 19.3 0.00 0.00 0.00 29 1005.6
20260503194034 20 286 3.2 8.0 0.00 0.00 0.00 29 1005.6
20260503193653 20 30 4.8 19.3 0.00 0.00 0.00 28 1005.7
20260503192531 20 342 4.8 12.9 0.00 0.00 0.00 31 1005.7
20260503192032 20 338 6.4 14.5 0.00 0.00 0.00 29 1005.8
20260503191531 20 26 6.4 14.5 0.00 0.00 0.00 31 1005.8
20260503191032 20 9 6.4 12.9 0.00 0.00 0.00 31 1005.9
20260503190531 20 318 4.8 8.0 0.00 0.00 0.00 30 1005.9
20260503190032 20 325 4.8 11.3 0.00 0.00 0.00 31 1006.0
20260503185533 20 321 4.8 11.3 0.00 0.00 0.00 34 1005.9
20260503185031 20 355 6.4 14.5 0.00 0.00 0.00 32 1005.8
20260503184531 20 5 8.0 16.1 0.00 0.00 0.00 31 1006.0
20260503184031 20 5 8.0 17.7 0.00 0.00 0.00 30 1005.9
20260503183533 20 13 8.0 19.3 0.00 0.00 0.00 30 1006.0
20260503183301 20 343 6.4 19.3 0.00 0.00 0.00 29 1006.0
20260503182531 20 355 6.4 14.5 0.00 0.00 0.00 27 1006.0
20260503182031 20 339 6.4 19.3 0.00 0.00 0.00 31 1006.0
20260503181801 20 338 8.0 19.3 0.00 0.00 0.00 32 1006.1
20260503181031 20 355 6.4 14.5 0.00 0.00 0.00 34 1006.2
20260503180803 20 331 6.4 14.5 0.00 0.00 0.00 34 1006.2
20260503180305 19 355 8.0 19.3 0.00 0.00 0.00 36 1006.2
20260503180030 20 326 4.8 14.5 0.00 0.00 0.00 37 1006.3
20260503175031 19 5 8.0 19.3 0.00 0.00 0.00 32 1006.2
20260503174533 19 32 6.4 17.7 0.00 0.00 0.00 37 1006.2
20260503174031 19 317 6.4 17.7 0.00 0.00 0.00 32 1006.2
20260503173532 20 337 6.4 17.7 0.00 0.00 0.00 36 1006.3
20260503173303 19 317 6.4 19.3 0.00 0.00 0.00 43 1006.3
20260503172529 19 9 9.7 20.9 0.00 0.00 0.00 42 1006.1
20260503172030 19 22 8.0 20.9 0.00 0.00 0.00 37 1006.3
20260503171529 19 0 6.4 14.5 0.00 0.00 0.00 38 1006.3
20260503171030 19 21 4.8 14.5 0.00 0.00 0.00 40 1006.3
20260503170800 19 5 4.8 14.5 0.00 0.00 0.00 42 1006.3
20260503150758 17 24 6.4 17.7 0.00 0.00 0.00 48 1006.0
20260503150257 16 20 8.0 17.7 0.00 0.00 0.00 47 1006.0